This demonstration page uses our WeatherBlox Daily Observations layout. Learn more.

Left ArrowRight Arrow

38.88101, -77.10428

Hourly Observations for March 13, 2019

Temp ( °F °C ) Dew Point ( °F °C ) Humidity (%) Winds ( mph kmh ) Pressure ( in mb ) Visibility ( mi km ) Precip ( " mm )
12:52 am 00:52 Partly Cloudy 40 4.4 27 -2.8 60 60 SW 3 6 30.35 1028 10 16.0934 0 0
1:52 am 01:52 Mostly Cloudy 39 3.9 26 -3.3 60 60 SSW 6 9 30.35 1028 10 16.0934 0 0
2:52 am 02:52 Mostly Cloudy 37 2.8 25 -3.9 62 62 SW 5 7 30.35 1028 10 16.0934 0 0
3:52 am 03:52 Mostly Cloudy 36 2.2 28 -2.2 73 73 SSW 3 6 30.35 1028 10 16.0934 0 0
4:52 am 04:52 Mostly Cloudy 37 2.8 28 -2.2 70 70 Calm 30.33 1027 10 16.0934 0 0
5:52 am 05:52 Partly Cloudy 34 1.1 26 -3.3 73 73 SSW 5 7 30.34 1028 10 16.0934 0 0
6:52 am 06:52 Mostly Cloudy 36 2.2 27 -2.8 70 70 Calm 30.36 1028 10 16.0934 0 0
7:52 am 07:52 Mostly Cloudy 36 2.2 26 -3.3 67 67 Calm 30.37 1029 10 16.0934 0 0
8:52 am 08:52 Mostly Cloudy 38 3.3 32 0 79 79 S 5 7 30.37 1029 10 16.0934 0 0
9:52 am 09:52 Mostly Cloudy 42 5.6 28 -2.2 58 58 S 5 7 30.38 1029 8 12.87472 0 0
10:52 am 10:52 Mostly Cloudy 47 8.3 28 -2.2 48 48 S 9 15 30.36 1028 10 16.0934 0 0
11:52 am 11:52 Cloudy 51 10.6 25 -3.9 36 36 S 9 15 30.35 1028 10 16.0934 0 0
12:52 pm 12:52 Mostly Cloudy 55 12.8 24 -4.4 30 30 S 10 17 30.34 1028 10 16.0934 0 0
1:52 pm 13:52 Mostly Cloudy 56 13.3 27 -2.8 33 33 S 12 19 30.31 1027 10 16.0934 0 0
2:52 pm 14:52 Mostly Cloudy 58 14.4 26 -3.3 29 29 S 10 17 30.27 1025 10 16.0934 0 0
3:52 pm 15:52 Mostly Cloudy 57 13.9 30 -1.1 36 36 S 12 19 30.24 1024 10 16.0934 0 0
4:52 pm 16:52 Mostly Cloudy 59 15 31 -0.6 35 35 S 10 17 30.24 1024 10 16.0934 0 0
5:52 pm 17:52 Cloudy 57 13.9 30 -1.1 36 36 S 13 20 30.23 1024 10 16.0934 0 0
6:52 pm 18:52 Cloudy 54 12.2 35 1.7 49 49 SSE 7 11 30.23 1024 10 16.0934 0 0
7:52 pm 19:52 Mostly Cloudy 52 11.1 30 -1.1 43 43 SE 12 19 30.25 1024 10 16.0934 0 0
8:52 pm 20:52 Cloudy 51 10.6 30 -1.1 44 44 SE 8 13 30.26 1025 10 16.0934 0 0
9:52 pm 21:52 Mostly Cloudy 50 10 31 -0.6 48 48 SSE 9 15 30.26 1025 10 16.0934 0 0
10:52 pm 22:52 Cloudy 50 10 32 0 50 50 SSE 7 11 30.25 1025 10 16.0934 0 0
11:52 pm 23:52 Cloudy 49 9.4 34 1.1 56 56 S 7 11 30.25 1024 10 16.0934 0 0

Powered by AerisWeather